#timestamp,LO_Frequency,Hit,StdDev 
1508058015.3,286046997.2,N
1508058035.2,286046992.9,N
1508058055.9,286046992.5,N
1508058075.7,286046991.5,Y
1508058095.6,286046990.5,P
1508058115.4,286046994.5,N
1508058135.2,286046993.7,N
1508058155.1,286046993.9,N
1508058156.0,286046993.9,N
1508058175.8,286046990.5,Y
1508058195.6,286047000.9,P
1508058215.5,286046996.3,N
1508058235.3,286046995.0,N
1508058255.1,286046993.7,N
1508058275.9,286046994.4,N
1508058295.7,286046996.4,N
1508058315.5,286046996.8,N
1508058335.3,286046995.2,N
1508058355.2,286046999.3,N
1508058375.9,286046996.7,N
1508058395.7,286046998.6,N
1508058415.6,286046999.1,N
1508058435.4,286047002.2,N
1508058455.2,286047004.1,N
1508058475.1,286047004.0,N
1508058476.0,286047004.0,N
1508058495.8,286047001.5,N
1508058515.1,286047003.9,N
1508058535.8,286047007.6,N
1508058555.7,286047005.5,N
1508058575.5,286047000.9,N
1508058595.3,286047000.1,N
1508058615.2,286046999.9,N
1508058635.9,286047006.0,N
1508058655.7,286047005.8,N
1508058675.6,286047001.8,N
1508058695.4,286047003.5,N
1508058715.2,286047003.4,N
1508058735.1,286047005.3,N
1508058736.0,286047005.3,N
1508058755.8,286047008.4,N
1508058775.6,286047006.1,N
1508058795.5,286047001.9,N
1508058815.3,286047002.2,N
1508058835.1,286047004.5,N
1508058855.9,286047003.1,N
1508058875.7,286047002.2,N
1508058895.5,286046997.3,N
1508058915.3,286047000.6,N
1508058935.2,286046999.1,N
1508058955.0,286046998.6,N
1508058955.9,286046998.6,N
1508058975.7,286046999.7,N
1508058995.6,286046998.3,N
1508059015.4,286047000.3,N
1508059035.2,286047002.6,N
1508059055.1,286046999.7,N
1508059056.0,286046999.7,N
1508059075.8,286047003.1,N
1508059095.6,286047005.9,N
1508059115.5,286047007.3,N
1508059135.3,286047003.0,N
1508059155.1,286047005.9,N
1508059175.9,286047007.4,N
1508059195.7,286047004.1,N
1508059215.5,286047001.5,N
1508059235.4,286047001.3,N
1508059255.2,286047005.3,N
1508059275.0,286047001.5,N
1508059275.9,286047001.5,N
1508059295.8,286047002.6,N
1508059315.6,286047002.6,N
1508059335.4,286047000.6,N
1508059355.3,286047002.4,N
1508059375.1,286047000.5,N
1508059376.0,286047000.5,N
1508059395.8,286046999.5,N
1508059415.6,286046994.1,N
1508059435.5,286046997.6,N
1508059455.3,286046993.3,N
1508059475.1,286046997.7,N
1508059495.9,286047000.7,N
1508059515.7,286047003.1,N
1508059535.5,286047002.0,N
1508059555.4,286046999.5,N
1508059575.2,286046995.4,N
1508059595.0,286047000.3,N
1508059595.9,286047000.3,N
1508059615.8,286046999.9,N
1508059635.6,286047000.5,N
1508059655.4,286047001.1,N
1508059675.3,286047000.2,N
1508059695.1,286047001.6,N
1508059696.0,286047001.6,N
1508059715.8,286047001.1,N
1508059735.7,286047002.1,N
1508059755.5,286047001.8,N
1508059775.3,286046999.0,N
1508059795.2,286046998.6,N
1508059815.9,286047000.5,N
1508059835.7,286046998.0,N
1508059855.5,286046996.4,N
1508059875.4,286046999.2,N
1508059895.2,286046996.9,N
1508059915.0,286046996.6,N
1508059915.9,286046996.6,N
1508059935.8,286046994.0,N
1508059955.6,286046994.3,N
1508059975.4,286046993.0,N
1508059995.3,286046990.4,Y
1508060015.1,286046992.6,P
1508060035.8,286046995.6,N
1508060055.7,286046997.8,N
1508060075.5,286046996.7,N
1508060095.3,286046993.3,Y
1508060115.2,286046997.6,P
1508060135.0,286046999.6,N
1508060135.9,286046999.6,N
1508060155.7,286046999.4,N
1508060175.6,286046998.8,N
1508060195.4,286046998.1,N
1508060215.2,286047000.5,N
1508060235.1,286047003.9,Y
1508060236.0,286047003.9,P
1508060255.8,286047000.2,N
1508060275.6,286046998.6,N
1508060295.5,286046999.6,N
1508060315.3,286047001.2,N
1508060335.1,286046998.4,N
1508060355.9,286046999.0,N
1508060375.7,286046997.7,N
1508060395.5,286047000.7,N
1508060415.4,286046998.2,N
1508060435.2,286046999.0,N
1508060455.0,286047001.0,N
1508060455.9,286047001.0,N
1508060475.8,286046997.5,N
1508060495.6,286046995.4,N
1508060515.4,286046999.3,N
1508060535.3,286046995.2,N
1508060555.1,286046996.8,N
1508060556.0,286046996.8,N
1508060575.8,286046998.4,N
1508060595.7,286046999.2,N
1508060615.5,286046995.6,N
1508060635.3,286046995.8,N
1508060655.1,286046994.2,N
1508060675.9,286046994.0,N
1508060695.7,286046994.5,N
1508060715.5,286046995.8,N
1508060735.4,286046992.2,Y
1508060755.2,286046997.5,P
1508060775.0,286046993.8,P
1508060775.9,286046993.8,P
1508060795.8,286046995.5,N
1508060815.6,286047001.3,N
1508060835.4,286047003.3,N
1508060855.3,286047005.5,N
1508060875.1,286047007.0,N
1508060895.8,286047007.1,N
1508060915.7,286047010.7,N
1508060935.5,286047008.3,N
1508060955.3,286047010.7,N
1508060975.2,286047005.9,N
1508060995.9,286047004.6,N
1508061015.7,286047003.7,N
1508061035.6,286047005.6,N
1508061055.4,286047002.0,N
1508061075.2,286046999.2,N
1508061095.0,286047000.4,N
1508061096.0,286047000.4,N
1508061115.8,286046998.8,N
1508061135.6,286046999.1,N
1508061155.4,286046999.4,N
1508061175.3,286047000.6,N
1508061195.1,286047003.0,N
1508061215.8,286047003.3,N
1508061235.7,286047001.8,N
1508061255.5,286047001.4,N
1508061275.3,286046998.5,N
1508061295.2,286046998.8,N
1508061315.9,286047004.0,N
1508061335.7,286047002.7,N
1508061355.6,286046999.9,N
1508061375.4,286047001.1,N
1508061395.2,286046997.4,N
1508061415.1,286046994.9,N
1508061416.0,286046994.9,N
1508061435.8,286046996.6,N
1508061455.6,286046998.9,N
1508061475.4,286047004.3,N
1508061495.3,286046998.8,N
1508061515.1,286047000.3,N
1508061535.8,286047003.5,N
1508061555.7,286047004.3,N
1508061575.5,286047004.3,N
1508061595.3,286047003.3,N
